Regional Weather Roundup
Issued by NWS

Home | Current Version | Previous Version | Graphics & Text | Print | Product List | Glossary On
Versions: 1 2 3 4 5 6 7 8 9 10 11 12 13 14 15 16 17 18 19 20 21 22 23 24 25 26 27 28 29 30 31 32 33 34 35 36 37 38 39 40 41 42 43 44 45 46 47 48 49 50
000
ASUS43 KDTX 271610
RWRMI
MICHIGAN HOURLY REGIONAL WEATHER ROUNDUP
NATIONAL WEATHER SERVICE DETROIT/PONTIAC MI
1200 PM EDT THU AUG 27 2015

NOTE: "FAIR" INDICATES FEW OR NO CLOUDS BELOW 12,000 FEET WITH NO
SIGNIFICANT WEATHER AND/OR OBSTRUCTION TO VISIBILITY.

MIZ047>049-052>055-059>063-066>070-074>076-081>083-271700-
SOUTHEAST LOWER MICHIGAN

CITY           SKY/WX    TMP DP  RH WIND       PRES   REMARKS
ADRIAN         CLOUDY    65  53  65 N6        30.24S
ALMA           CLOUDY    64  54  72 SW3       30.22F
ANN ARBOR      CLOUDY    65  52  62 NW6       30.22F
BAD AXE        CLOUDY    60  51  71 NW10      30.22R
DETROIT CITY   CLOUDY    63  52  67 N8        30.23R
DETROIT        CLOUDY    65  52  62 NW12      30.23S
FLINT          CLOUDY    64  52  64 NW8       30.23S
GROSSE ILE     PTSUNNY   66  54  63 NW9       30.21S
HILLSDALE      CLOUDY    64  56  76 NW5       30.23F
HOWELL         CLOUDY    63  50  63 NW6       30.23S

CITY           SKY/WX    TMP DP  RH WIND       PRES   REMARKS
JACKSON        CLOUDY    62  53  72 CALM      30.24S
LAMBERTVILLE   PTSUNNY   68  54  61 N3        30.22F
LANSING        CLOUDY    62  52  69 NW6       30.24S
LAPEER         NOT AVBL
MASON          CLOUDY    60  50  70 CALM      30.24F
MONROE         CLOUDY    67  53  59 NW7       30.21F
MT. CLEMENS    CLOUDY    62  53  72 N9        30.21R
PONTIAC        CLOUDY    62  51  67 NW7       30.22S
PORT HOPE        N/A     61  52  72 NW7       30.20R
PORT HURON     CLOUDY    61  54  77 NW6       30.22S
TRI CITIES     CLOUDY    64  55  72 S6        30.22F
YPSILANTI      CLOUDY    67  53  61 NW9G23    30.23S
$$
MIZ043>046-050>051-056>058-064>065-071>073-077>080-271700-
SOUTHWEST LOWER MICHIGAN

CITY           SKY/WX    TMP DP  RH WIND       PRES   REMARKS
BATTLE CREEK   CLOUDY    62  53  72 E5        30.23F
BENTON HARBOR  MOSUNNY   66  56  70 NE9       30.20F
BIG RAPIDS     CLOUDY    67  54  62 CALM      30.19F
COLDWATER      CLOUDY    63  57  80 N5        30.22F
HOLLAND        SUNNY     68  54  60 VRB6      30.20F
GRAND RAPIDS   MOSUNNY   66  54  65 SE7       30.20F
KALAMAZOO      MOSUNNY   63  54  72 E8        30.23F
MARSHALL       CLOUDY    61  54  77 CALM      30.24F
MUSKEGON       MOSUNNY   68  54  60 S6        30.20F
$$
MIZ016>042-271700-
NORTHERN LOWER MICHIGAN

CITY           SKY/WX    TMP DP  RH WIND       PRES   REMARKS
ALPENA         CLOUDY    60  50  69 NW7       30.21F
BEAVER ISLAND  MOSUNNY   64  54  71 W6        30.18F
BELLAIRE       MOSUNNY   65  55  70 S3        30.18F
CADILLAC       CLOUDY    66  56  70 SW3       30.18F
CHARLEVOIX     PTSUNNY   63  55  74 E5        30.21F
FRANKFORT      SUNNY     68  59  72 W6        30.17F
GAYLORD        CLOUDY    62  53  72 W9        30.20F
GRAYLING       CLOUDY    64  54  70 W9        30.20F
HARBOR SPRINGS MOSUNNY   62  53  72 W3        30.19F
HOUGHTON LAKE  CLOUDY    62  54  74 W3        30.21F
MANISTEE       MOSUNNY   66  54  63 W3        30.17F
OSCODA         CLOUDY    60  51  72 NW5       30.20F
PELLSTON       CLOUDY    62  52  69 W6        30.19F
TRAVERSE CITY  PTSUNNY   69  56  62 VRB7      30.17F
$$
MIZ007>008-015-271700-
EASTERN UPPER MICHIGAN

CITY           SKY/WX    TMP DP  RH WIND       PRES   REMARKS
KINROSS        CLOUDY    59  54  82 W3        30.19F
MACKINAC ISLAN PTSUNNY   59  47  64 CALM      30.19F
NEWBERRY       CLOUDY    61  51  71 CALM      30.18F
S. S. MARIE    CLOUDY    58  54  86 SW8       30.18F
$$
MIZ004>006-011>014-085-271700-
CENTRAL UPPER MICHIGAN

CITY           SKY/WX    TMP DP  RH WIND       PRES   REMARKS
MANISTIQUE     MOSUNNY   62  53  71 S6        30.18S
ESCANABA       PTSUNNY   59  54  82 E5        30.16F
MENOMINEE      SUNNY     63  54  72 CALM      30.16S
SAWYER-GWINN   SUNNY     63  54  72 SW5       30.16F
$$
MIZ001>003-009>011-084-271700-
WESTERN UPPER MICHIGAN

CITY           SKY/WX    TMP DP  RH WIND       PRES   REMARKS
IRON MOUNTAIN  CLOUDY    58  53  84 CALM      30.16S
HOUGHTON       SUNNY     62  50  64 SE7       30.13F
COPPER HARBOR    N/A     63  49  60 SW8       30.12F
IRONWOOD       SUNNY     66  46  48 SW6       30.10F
$$

ABBREVIATIONS USED IN REMARKS
   TC - TEMPERATURE IN CELSIUS
  WCI - WIND CHILL INDEX
   HX - HEAT INDEX
  VSB - VISIBILITY



USA.gov is the U.S. government's official web portal to all federal, state and local government web resources and services.